World > North America > United States > New York

New Lebanon Center, New York Regional Weather

Lat: 42.47N, Lon: 73.42W
Wx Zone: NYZ061Web Search

Pass this page to a friend. Tell them to point their camera at the QR Code near the bottom of this page.

Feedback


°F Click to change New Lebanon Center hourly weather to Imperial units.Click to change New Lebanon Center hourly weather to Metric units. °C
New Lebanon Center Weather Map
UTC Time: 5/8/2021, 01:35
Your Time:

New Lebanon Center, NY Regional Weather

Expires:202105080200;;761424
ASUS41 KALY 080110
RWRALY

NEW YORK STATE HOURLY WEATHER ROUNDUP
NATIONAL WEATHER SERVICE ALBANY NY
900 PM EDT FRI MAY 07 2021

NOTE: "FAIR" INDICATES FEW OR NO CLOUDS BELOW 12,000 FEET WITH NO
SIGNIFICANT WEATHER AND/OR NO OBSTRUCTIONS TO VISIBILITY.


NYZ032-033-038>043-046>054-057>066-NYZ062>081-082-084-080200-
EAST

  
CITY           SKY/WX    TMP DP  RH WIND       PRES   REMARKS
ALBANY         CLOUDY    54  36  50 SE8       29.85S                  
GLENS FALLS    CLOUDY    58  34  40 E3        29.85R                  
POUGHKEEPSIE   PTCLDY    55  40  56 SE6       29.86R                  
NEWBURGH       MOCLDY    55  41  58 SE14      29.86R                  
MONTGOMERY     CLOUDY    54  41  61 SE8       29.84R                  
WHITE PLAINS   PTCLDY    51  39  63 SE9G20    29.86S                  
ISLIP          MOCLDY    51  41  68 E8        29.88S                  
NEW YORK CITY  MOCLDY    55  42  61 SE10      29.86R                  
$$


SKY/WX - Weather  TMP - Temperature  DP - Dew Point  RH - Relative Humidity
WIND - Wind Direction/Speed PRES - Barometric Pressure VSB - Visibility
WCI - Wind Chill Index E13G22 Wind - East Wind 13 mph/Gusts of 22 mph